sat.trackr.live / text

‹ back to catalog

FLOCK 4H-18

NORAD 66721 · 2025-276BH

PAYLOAD ACTIVE UNKNOWN

§ Identity

Operator
Country
US
Launch date
2025-11-28
Launch site
AFWTR
Launch vehicle
Mass (kg)
RCS (m²)

Purposes: earth_obs

External: N2YO · Heavens-Above · Gunter

§ Orbital elements

Epoch: 2026-05-25T04:22:23.769120Z

Period
94.77 min
Inclination
97.4181°
Eccentricity
0.0005570
Mean motion
15.19457255 rev/d
Perigee alt
503.6 km
Apogee alt
511.3 km
Semi-major
6,885.6 km
B*
2.7200e-4
RAAN
219.0006°
Arg perigee
105.8250°
Mean anomaly
254.3599°
Rev number
2,692

§ Raw data

FLOCK 4H-181 66721U 25276BH  26145.18221955  .00005702  00000+0  27200-3 0  99922 66721  97.4181 219.0006 0005570 105.8250 254.3599 15.19457255 26920

JSON: /api/v1/satellites/66721 · /tle

For live sub-satellite position, see the globe view (requires WebGL).

§ Visibility from observer

Set your observer location to see the next 7 days of passes ≥ 10°. The values pass through the URL so the page stays shareable.

No JS? Fill the form by hand. The geolocation button needs JavaScript.